| time (UTC) | temp F | wind direction | speed MPH | gust MPH | rain 1hr in | rain 24hr in | rain mn in | humidity % | barometer mb |
| 20260902204536 | 79 | 246 | 0.0 | 4.0 | 0.00 | 0.00 | 0.00 | 79 | 1010.6 |
| 20260902204035 | 79 | 225 | 0.0 | 2.0 | 0.00 | 0.00 | 0.00 | 79 | 1010.4 |
| 20260902203535 | 79 | 101 | 1.0 | 7.0 | 0.00 | 0.00 | 0.00 | 78 | 1010.3 |
| 20260902203038 | 80 | 115 | 1.0 | 7.0 | 0.00 | 0.00 | 0.00 | 78 | 1010.4 |
| 20260902202535 | 80 | 108 | 0.0 | 2.0 | 0.00 | 0.00 | 0.00 | 78 | 1010.4 |
| 20260902202035 | 80 | 118 | 0.0 | 4.0 | 0.00 | 0.00 | 0.00 | 78 | 1010.7 |
| 20260902201534 | 81 | 114 | 0.0 | 4.0 | 0.00 | 0.00 | 0.00 | 77 | 1010.6 |
| 20260902201034 | 81 | 81 | 0.0 | 4.0 | 0.00 | 0.00 | 0.00 | 77 | 1010.7 |
| 20260902200534 | 81 | 105 | 1.0 | 6.0 | 0.00 | 0.00 | 0.00 | 77 | 1010.5 |
| 20260902200034 | 81 | 113 | 2.0 | 6.0 | 0.00 | 0.00 | 0.00 | 76 | 1010.7 |
| 20260902195535 | 81 | 117 | 1.0 | 4.0 | 0.00 | 0.00 | 0.00 | 77 | 1010.6 |
| 20260902195034 | 81 | 103 | 1.0 | 3.0 | 0.00 | 0.00 | 0.00 | 76 | 1010.8 |
| 20260902194536 | 82 | 103 | 1.0 | 8.0 | 0.00 | 0.00 | 0.00 | 76 | 1011.1 |
| 20260902194037 | 82 | 135 | 2.0 | 12.0 | 0.00 | 0.00 | 0.00 | 76 | 1010.7 |
| 20260902193534 | 83 | 84 | 4.0 | 15.0 | 0.00 | 0.00 | 0.00 | 75 | 1011.0 |
| 20260902193035 | 83 | 63 | 4.0 | 15.0 | 0.00 | 0.00 | 0.00 | 74 | 1010.9 |
| 20260902192532 | 84 | 77 | 4.0 | 18.0 | 0.00 | 0.00 | 0.00 | 73 | 1010.8 |
| 20260902192032 | 86 | 323 | 6.0 | 17.0 | 0.00 | 0.00 | 0.00 | 69 | 1010.7 |
| 20260902191531 | 91 | 100 | 4.0 | 9.0 | 0.00 | 0.00 | 0.00 | 69 | 1010.4 |
| 20260902191030 | 91 | 107 | 1.0 | 5.0 | 0.00 | 0.00 | 0.00 | 70 | 1009.9 |
| 20260902190534 | 91 | 106 | 0.0 | 5.0 | 0.00 | 0.00 | 0.00 | 70 | 1009.7 |
| 20260902190031 | 91 | 139 | 1.0 | 3.0 | 0.00 | 0.00 | 0.00 | 70 | 1009.8 |
| 20260902185530 | 90 | 113 | 0.0 | 5.0 | 0.00 | 0.00 | 0.00 | 70 | 1010.0 |
| 20260902185035 | 90 | 83 | 1.0 | 6.0 | 0.00 | 0.00 | 0.00 | 69 | 1010.2 |
| 20260902184530 | 91 | 95 | 2.0 | 6.0 | 0.00 | 0.00 | 0.00 | 68 | 1010.4 |
| 20260902184030 | 91 | 134 | 1.0 | 6.0 | 0.00 | 0.00 | 0.00 | 68 | 1010.5 |
| 20260902183530 | 91 | 124 | 2.0 | 6.0 | 0.00 | 0.00 | 0.00 | 67 | 1010.6 |
| 20260902183029 | 92 | 134 | 2.0 | 6.0 | 0.00 | 0.00 | 0.00 | 68 | 1010.5 |
| 20260902182528 | 92 | 96 | 2.0 | 6.0 | 0.00 | 0.00 | 0.00 | 66 | 1010.4 |
| 20260902182028 | 92 | 44 | 2.0 | 6.0 | 0.00 | 0.00 | 0.00 | 65 | 1010.3 |
| 20260902181526 | 93 | 84 | 1.0 | 4.0 | 0.00 | 0.00 | 0.00 | 65 | 1010.1 |
| 20260902181026 | 93 | 88 | 1.0 | 4.0 | 0.00 | 0.00 | 0.00 | 65 | 1010.1 |
| 20260902180524 | 92 | 117 | 1.0 | 2.0 | 0.00 | 0.00 | 0.00 | 66 | 1010.3 |
| 20260902180025 | 92 | 276 | 0.0 | 4.0 | 0.00 | 0.00 | 0.00 | 66 | 1010.3 |
| 20260902175524 | 92 | 86 | 1.0 | 5.0 | 0.00 | 0.00 | 0.00 | 65 | 1010.3 |
| 20260902175023 | 92 | 108 | 2.0 | 7.0 | 0.00 | 0.00 | 0.00 | 65 | 1010.4 |
| 20260902174523 | 92 | 80 | 1.0 | 7.0 | 0.00 | 0.00 | 0.00 | 65 | 1010.4 |
| 20260902174026 | 92 | 98 | 1.0 | 4.0 | 0.00 | 0.00 | 0.00 | 66 | 1010.4 |
| 20260902173523 | 92 | 60 | 1.0 | 4.0 | 0.00 | 0.00 | 0.00 | 65 | 1010.3 |
| 20260902173021 | 92 | 133 | 1.0 | 4.0 | 0.00 | 0.00 | 0.00 | 64 | 1010.3 |
| 20260902172523 | 92 | 66 | 0.0 | 3.0 | 0.00 | 0.00 | 0.00 | 64 | 1010.3 |
| 20260902172020 | 92 | 86 | 1.0 | 7.0 | 0.00 | 0.00 | 0.00 | 65 | 1010.3 |
| 20260902171620 | 92 | 86 | 2.0 | 7.0 | 0.00 | 0.00 | 0.00 | 65 | 1010.3 |
| 20260902171019 | 91 | 51 | 0.0 | 4.0 | 0.00 | 0.00 | 0.00 | 66 | 1010.4 |
| 20260902170517 | 91 | 52 | 0.0 | 3.0 | 0.00 | 0.00 | 0.00 | 65 | 1010.4 |
| 20260902170016 | 91 | 115 | 1.0 | 3.0 | 0.00 | 0.00 | 0.00 | 65 | 1010.4 |
| 20260902165521 | 90 | 132 | 0.0 | 4.0 | 0.00 | 0.00 | 0.00 | 65 | 1010.5 |
| 20260902165015 | 90 | 88 | 1.0 | 4.0 | 0.00 | 0.00 | 0.00 | 66 | 1010.5 |
| 20260902164514 | 90 | 167 | 1.0 | 5.0 | 0.00 | 0.00 | 0.00 | 66 | 1010.5 |
| 20260902164015 | 91 | 77 | 2.0 | 5.0 | 0.00 | 0.00 | 0.00 | 66 | 1010.4 |
| 20260902163514 | 90 | 231 | 0.0 | 4.0 | 0.00 | 0.00 | 0.00 | 66 | 1010.5 |
| 20260902163012 | 90 | 298 | 0.0 | 4.0 | 0.00 | 0.00 | 0.00 | 67 | 1010.5 |
| 20260902162511 | 90 | 52 | 1.0 | 4.0 | 0.00 | 0.00 | 0.00 | 66 | 1010.5 |
| 20260902162011 | 89 | 117 | 0.0 | 4.0 | 0.00 | 0.00 | 0.00 | 67 | 1010.5 |
| 20260902161511 | 90 | 83 | 1.0 | 4.0 | 0.00 | 0.00 | 0.00 | 67 | 1010.5 |
| 20260902161011 | 90 | 330 | 1.0 | 4.0 | 0.00 | 0.00 | 0.00 | 66 | 1010.4 |
| 20260902160511 | 90 | 115 | 0.0 | 5.0 | 0.00 | 0.00 | 0.00 | 68 | 1010.4 |
| 20260902160017 | 90 | 120 | 1.0 | 5.0 | 0.00 | 0.00 | 0.00 | 68 | 1010.5 |
| 20260902155509 | 89 | 132 | 1.0 | 3.0 | 0.00 | 0.00 | 0.00 | 69 | 1010.4 |
| 20260902155009 | 89 | 120 | 0.0 | 3.0 | 0.00 | 0.00 | 0.00 | 68 | 1010.3 |
| 20260902154611 | 89 | 131 | 0.0 | 3.0 | 0.00 | 0.00 | 0.00 | 69 | 1010.4 |
| 20260902154006 | 88 | 116 | 0.0 | 6.0 | 0.00 | 0.00 | 0.00 | 71 | 1010.5 |
| 20260902153505 | 88 | 19 | 1.0 | 6.0 | 0.00 | 0.00 | 0.00 | 73 | 1010.6 |
| 20260902153006 | 88 | 69 | 2.0 | 6.0 | 0.00 | 0.00 | 0.00 | 71 | 1010.4 |
| 20260902152504 | 88 | 82 | 2.0 | 6.0 | 0.00 | 0.00 | 0.00 | 71 | 1010.4 |
| 20260902152003 | 88 | 111 | 1.0 | 3.0 | 0.00 | 0.00 | 0.00 | 71 | 1010.5 |
| 20260902151503 | 87 | 109 | 1.0 | 4.0 | 0.00 | 0.00 | 0.00 | 71 | 1010.4 |
| 20260902151004 | 88 | 101 | 1.0 | 5.0 | 0.00 | 0.00 | 0.00 | 72 | 1010.5 |
| 20260902150501 | 87 | 96 | 1.0 | 6.0 | 0.00 | 0.00 | 0.00 | 72 | 1010.5 |
| 20260902145601 | 87 | 84 | 2.0 | 5.0 | 0.00 | 0.00 | 0.00 | 73 | 1010.6 |
| 20260902145059 | 87 | 30 | 1.0 | 5.0 | 0.00 | 0.00 | 0.00 | 73 | 1010.6 |
| 20260902144602 | 87 | 113 | 1.0 | 3.0 | 0.00 | 0.00 | 0.00 | 73 | 1010.6 |
| 20260902144059 | 87 | 64 | 0.0 | 4.0 | 0.00 | 0.00 | 0.00 | 74 | 1010.6 |
| 20260902143559 | 86 | 40 | 0.0 | 4.0 | 0.00 | 0.00 | 0.00 | 74 | 1010.6 |
| 20260902143056 | 86 | 13 | 1.0 | 5.0 | 0.00 | 0.00 | 0.00 | 74 | 1010.6 |
| 20260902142555 | 86 | 82 | 1.0 | 3.0 | 0.00 | 0.00 | 0.00 | 75 | 1010.5 |
| 20260902142056 | 86 | 45 | 1.0 | 3.0 | 0.00 | 0.00 | 0.00 | 74 | 1010.5 |
| 20260902141554 | 85 | 113 | 0.0 | 3.0 | 0.00 | 0.00 | 0.00 | 76 | 1010.5 |
| 20260902141053 | 85 | 92 | 0.0 | 3.0 | 0.00 | 0.00 | 0.00 | 76 | 1010.5 |
| 20260902140552 | 85 | 72 | 0.0 | 3.0 | 0.00 | 0.00 | 0.00 | 77 | 1010.5 |
| 20260902140053 | 84 | 121 | 1.0 | 3.0 | 0.00 | 0.00 | 0.00 | 78 | 1010.4 |
| 20260902135550 | 84 | 56 | 0.0 | 4.0 | 0.00 | 0.00 | 0.00 | 78 | 1010.5 |
| 20260902135049 | 83 | 28 | 1.0 | 4.0 | 0.00 | 0.00 | 0.00 | 79 | 1010.5 |
| 20260902134550 | 83 | 46 | 1.0 | 3.0 | 0.00 | 0.00 | 0.00 | 79 | 1010.4 |
| 20260902134048 | 83 | 64 | 0.0 | 5.0 | 0.00 | 0.00 | 0.00 | 80 | 1010.4 |
| 20260902133548 | 82 | 340 | 1.0 | 5.0 | 0.00 | 0.00 | 0.00 | 79 | 1010.5 |
| 20260902133050 | 83 | 72 | 0.0 | 2.0 | 0.00 | 0.00 | 0.00 | 80 | 1010.5 |
| 20260902132547 | 82 | 70 | 0.0 | 3.0 | 0.00 | 0.00 | 0.00 | 81 | 1010.5 |
| 20260902132045 | 81 | 82 | 0.0 | 3.0 | 0.00 | 0.00 | 0.00 | 81 | 1010.2 |
| 20260902131549 | 81 | 7 | 1.0 | 3.0 | 0.00 | 0.00 | 0.00 | 81 | 1010.2 |
| 20260902131049 | 81 | 80 | 0.0 | 5.0 | 0.00 | 0.00 | 0.00 | 81 | 1010.1 |
| 20260902130544 | 81 | 102 | 0.0 | 2.0 | 0.00 | 0.00 | 0.00 | 82 | 1010.3 |
| 20260902130045 | 80 | 48 | 0.0 | 6.0 | 0.00 | 0.00 | 0.00 | 83 | 1010.2 |
| 20260902125544 | 80 | 358 | 0.0 | 4.0 | 0.00 | 0.00 | 0.00 | 83 | 1010.1 |
| 20260902125044 | 80 | 45 | 1.0 | 4.0 | 0.00 | 0.00 | 0.00 | 83 | 1010.1 |
| 20260902124544 | 79 | 10 | 0.0 | 4.0 | 0.00 | 0.00 | 0.00 | 83 | 1010.1 |
| 20260902124046 | 79 | 319 | 2.0 | 4.0 | 0.00 | 0.00 | 0.00 | 83 | 1010.1 |
| 20260902123543 | 79 | 44 | 1.0 | 4.0 | 0.00 | 0.00 | 0.00 | 83 | 1010.0 |
| 20260902123042 | 79 | 84 | 0.0 | 3.0 | 0.00 | 0.00 | 0.00 | 83 | 1010.2 |
| 20260902122543 | 79 | 79 | 0.0 | 4.0 | 0.00 | 0.00 | 0.00 | 84 | 1010.2 |
| 20260902122044 | 79 | 16 | 0.0 | 3.0 | 0.00 | 0.00 | 0.00 | 84 | 1010.3 |
| 20260902121544 | 78 | 68 | 0.0 | 1.0 | 0.00 | 0.00 | 0.00 | 85 | 1010.3 |
| 20260902121042 | 77 | 282 | 0.0 | 1.0 | 0.00 | 0.00 | 0.00 | 86 | 1010.3 |
| 20260902120542 | 77 | 275 | 0.0 | 1.0 | 0.00 | 0.00 | 0.00 | 86 | 1010.3 |
| 20260902120042 | 76 | 82 | 0.0 | 0.0 | 0.00 | 0.00 | 0.00 | 87 | 1010.2 |
| 20260902115542 | 76 | 82 | 0.0 | 0.0 | 0.00 | 0.00 | 0.00 | 87 | 1010.2 |
| 20260902115041 | 75 | 82 | 0.0 | 0.0 | 0.00 | 0.00 | 0.00 | 88 | 1010.2 |
| 20260902114610 | 75 | 82 | 0.0 | 0.0 | 0.00 | 0.00 | 0.00 | 88 | 1010.1 |
| 20260902114042 | 75 | 82 | 0.0 | 0.0 | 0.00 | 0.00 | 0.00 | 88 | 1010.1 |
| 20260902113540 | 75 | 82 | 0.0 | 0.0 | 0.00 | 0.00 | 0.00 | 88 | 1010.1 |
| 20260902113045 | 75 | 82 | 0.0 | 0.0 | 0.00 | 0.00 | 0.00 | 87 | 1010.1 |
| 20260902112539 | 75 | 82 | 0.0 | 0.0 | 0.00 | 0.00 | 0.00 | 87 | 1010.2 |
| 20260902112041 | 75 | 82 | 0.0 | 0.0 | 0.00 | 0.00 | 0.00 | 87 | 1010.2 |
| 20260902111539 | 75 | 82 | 0.0 | 0.0 | 0.00 | 0.00 | 0.00 | 87 | 1010.1 |
| 20260902111037 | 75 | 359 | 0.0 | 0.0 | 0.00 | 0.00 | 0.00 | 87 | 1010.1 |
| 20260902110537 | 75 | 359 | 0.0 | 0.0 | 0.00 | 0.00 | 0.00 | 87 | 1010.1 |
| 20260902110036 | 75 | 359 | 0.0 | 1.0 | 0.00 | 0.00 | 0.00 | 86 | 1010.1 |
| 20260902105539 | 75 | 359 | 0.0 | 3.0 | 0.00 | 0.00 | 0.00 | 86 | 1010.1 |
| 20260902105036 | 76 | 359 | 0.0 | 3.0 | 0.00 | 0.00 | 0.00 | 85 | 1010.0 |
| 20260902104534 | 76 | 18 | 0.0 | 2.0 | 0.00 | 0.00 | 0.00 | 85 | 1010.0 |
| 20260902104034 | 76 | 37 | 0.0 | 2.0 | 0.00 | 0.00 | 0.00 | 85 | 1010.0 |
| 20260902103533 | 76 | 323 | 0.0 | 3.0 | 0.00 | 0.00 | 0.00 | 85 | 1009.9 |
| 20260902103032 | 76 | 351 | 0.0 | 3.0 | 0.00 | 0.00 | 0.00 | 84 | 1009.9 |
| 20260902102533 | 76 | 23 | 0.0 | 3.0 | 0.00 | 0.00 | 0.00 | 84 | 1009.8 |
| 20260902102030 | 76 | 319 | 0.0 | 3.0 | 0.00 | 0.00 | 0.00 | 84 | 1009.8 |
| 20260902101530 | 76 | 44 | 0.0 | 2.0 | 0.00 | 0.00 | 0.00 | 84 | 1009.7 |
| 20260902101029 | 77 | 18 | 0.0 | 3.0 | 0.00 | 0.00 | 0.00 | 83 | 1009.6 |
| 20260902100530 | 77 | 19 | 0.0 | 3.0 | 0.00 | 0.00 | 0.00 | 83 | 1009.7 |
| 20260902100028 | 77 | 34 | 0.0 | 3.0 | 0.00 | 0.00 | 0.00 | 83 | 1009.7 |
| 20260902095528 | 77 | 24 | 0.0 | 3.0 | 0.00 | 0.00 | 0.00 | 82 | 1009.5 |
| 20260902095028 | 77 | 356 | 0.0 | 3.0 | 0.00 | 0.00 | 0.00 | 82 | 1009.5 |
| 20260902094528 | 77 | 33 | 0.0 | 3.0 | 0.00 | 0.00 | 0.00 | 82 | 1009.4 |
| 20260902094028 | 77 | 18 | 0.0 | 4.0 | 0.00 | 0.00 | 0.00 | 82 | 1009.4 |
| 20260902093527 | 77 | 30 | 0.0 | 3.0 | 0.00 | 0.00 | 0.00 | 81 | 1009.4 |
| 20260902093027 | 77 | 23 | 0.0 | 2.0 | 0.00 | 0.00 | 0.00 | 81 | 1009.4 |
| 20260902092530 | 77 | 79 | 0.0 | 2.0 | 0.00 | 0.00 | 0.00 | 82 | 1009.4 |
| 20260902092029 | 77 | 248 | 0.0 | 0.0 | 0.00 | 0.00 | 0.00 | 82 | 1009.3 |
| 20260902091525 | 77 | 248 | 0.0 | 0.0 | 0.00 | 0.00 | 0.00 | 82 | 1009.3 |
| 20260902091027 | 77 | 248 | 0.0 | 0.0 | 0.00 | 0.00 | 0.00 | 81 | 1009.4 |
| 20260902090525 | 78 | 248 | 0.0 | 0.0 | 0.00 | 0.00 | 0.00 | 81 | 1009.4 |
| 20260902090027 | 78 | 248 | 0.0 | 0.0 | 0.00 | 0.00 | 0.00 | 81 | 1009.4 |
| 20260902085523 | 78 | 248 | 0.0 | 1.0 | 0.00 | 0.00 | 0.00 | 80 | 1009.5 |
| 20260902085023 | 78 | 278 | 0.0 | 1.0 | 0.00 | 0.00 | 0.00 | 80 | 1009.4 |
| 20260902084523 | 78 | 278 | 0.0 | 1.0 | 0.00 | 0.00 | 0.00 | 80 | 1009.4 |
| 20260902084026 | 78 | 314 | 0.0 | 1.0 | 0.00 | 0.00 | 0.00 | 80 | 1009.4 |
| 20260902083521 | 78 | 296 | 0.0 | 1.0 | 0.00 | 0.00 | 0.00 | 80 | 1009.3 |
| 20260902083025 | 78 | 297 | 0.0 | 1.0 | 0.00 | 0.00 | 0.00 | 79 | 1009.3 |
| 20260902082521 | 78 | 280 | 0.0 | 1.0 | 0.00 | 0.00 | 0.00 | 79 | 1009.3 |
| 20260902082021 | 78 | 280 | 0.0 | 1.0 | 0.00 | 0.00 | 0.00 | 79 | 1009.2 |
| 20260902081523 | 79 | 22 | 0.0 | 1.0 | 0.00 | 0.00 | 0.00 | 79 | 1009.2 |
| 20260902081020 | 79 | 53 | 0.0 | 2.0 | 0.00 | 0.00 | 0.00 | 79 | 1009.3 |
| 20260902080520 | 79 | 48 | 0.0 | 3.0 | 0.00 | 0.00 | 0.00 | 79 | 1009.4 |
| 20260902080020 | 78 | 51 | 0.0 | 3.0 | 0.00 | 0.00 | 0.00 | 79 | 1009.3 |
| 20260902075519 | 78 | 349 | 0.0 | 2.0 | 0.00 | 0.00 | 0.00 | 79 | 1009.4 |
| 20260902075023 | 79 | 296 | 0.0 | 2.0 | 0.00 | 0.00 | 0.00 | 79 | 1009.4 |
| 20260902074525 | 78 | 288 | 0.0 | 2.0 | 0.00 | 0.00 | 0.00 | 79 | 1009.4 |
| 20260902074019 | 78 | 299 | 0.0 | 2.0 | 0.00 | 0.00 | 0.00 | 80 | 1009.4 |
| 20260902073518 | 78 | 279 | 0.0 | 1.0 | 0.00 | 0.00 | 0.00 | 80 | 1009.5 |
| 20260902073016 | 79 | 291 | 0.0 | 0.0 | 0.00 | 0.00 | 0.00 | 79 | 1009.4 |
| 20260902072516 | 79 | 291 | 0.0 | 0.0 | 0.00 | 0.00 | 0.00 | 79 | 1009.4 |
| 20260902072014 | 79 | 291 | 0.0 | 1.0 | 0.00 | 0.00 | 0.00 | 78 | 1009.4 |
| 20260902071515 | 80 | 291 | 0.0 | 1.0 | 0.00 | 0.00 | 0.00 | 77 | 1009.4 |
| 20260902071015 | 80 | 312 | 0.0 | 1.0 | 0.00 | 0.00 | 0.00 | 77 | 1009.3 |
| 20260902070515 | 80 | 42 | 0.0 | 1.0 | 0.00 | 0.00 | 0.00 | 77 | 1009.2 |
| 20260902070012 | 80 | 51 | 0.0 | 2.0 | 0.00 | 0.00 | 0.00 | 76 | 1009.2 |
| 20260902065512 | 80 | 75 | 0.0 | 2.0 | 0.00 | 0.00 | 0.00 | 76 | 1009.2 |
| 20260902065012 | 80 | 67 | 0.0 | 2.0 | 0.00 | 0.00 | 0.00 | 77 | 1009.3 |
| 20260902064512 | 80 | 5 | 0.0 | 2.0 | 0.00 | 0.00 | 0.00 | 76 | 1009.2 |
| 20260902064010 | 81 | 89 | 0.0 | 1.0 | 0.00 | 0.00 | 0.00 | 76 | 1009.1 |
| 20260902063512 | 81 | 304 | 0.0 | 1.0 | 0.00 | 0.00 | 0.00 | 76 | 1009.0 |
| 20260902063009 | 81 | 70 | 0.0 | 2.0 | 0.00 | 0.00 | 0.00 | 76 | 1009.1 |
| 20260902062507 | 81 | 19 | 0.0 | 2.0 | 0.00 | 0.00 | 0.00 | 76 | 1009.0 |
| 20260902062010 | 81 | 34 | 0.0 | 3.0 | 0.00 | 0.00 | 0.00 | 76 | 1008.9 |
| 20260902061516 | 81 | 67 | 0.0 | 3.0 | 0.00 | 0.00 | 0.00 | 76 | 1008.9 |
| 20260902061005 | 82 | 44 | 0.0 | 4.0 | 0.00 | 0.00 | 0.00 | 76 | 1008.9 |
| 20260902060504 | 82 | 38 | 0.0 | 6.0 | 0.00 | 0.00 | 0.00 | 76 | 1008.9 |
| 20260902060009 | 82 | 54 | 2.0 | 6.0 | 0.00 | 0.00 | 0.00 | 76 | 1008.7 |
| 20260902055505 | 82 | 86 | 0.0 | 3.0 | 0.00 | 0.00 | 0.00 | 75 | 1008.6 |
| 20260902055004 | 82 | 7 | 0.0 | 3.0 | 0.00 | 0.00 | 0.00 | 75 | 1008.6 |
| 20260902054501 | 82 | 32 | 0.0 | 3.0 | 0.00 | 0.00 | 0.00 | 76 | 1008.7 |
| 20260902054001 | 81 | 72 | 0.0 | 1.0 | 0.00 | 0.00 | 0.00 | 77 | 1008.7 |
| 20260902053600 | 81 | 54 | 0.0 | 1.0 | 0.00 | 0.00 | 0.00 | 78 | 1008.6 |
| 20260902053105 | 81 | 287 | 0.0 | 1.0 | 0.00 | 0.00 | 0.00 | 79 | 1008.6 |
| 20260902052559 | 81 | 287 | 0.0 | 1.0 | 0.00 | 0.00 | 0.00 | 80 | 1008.7 |
| 20260902052102 | 81 | 283 | 0.0 | 2.0 | 0.00 | 0.00 | 0.00 | 80 | 1008.7 |
| 20260902051559 | 81 | 284 | 0.0 | 3.0 | 0.00 | 0.00 | 0.00 | 81 | 1008.6 |
| 20260902051057 | 80 | 287 | 0.0 | 2.0 | 0.00 | 0.00 | 0.00 | 81 | 1008.7 |
| 20260902050557 | 80 | 257 | 0.0 | 2.0 | 0.00 | 0.00 | 0.00 | 82 | 1008.7 |
| 20260902050057 | 80 | 241 | 0.0 | 2.0 | 0.00 | 0.00 | 0.00 | 83 | 1008.6 |
| 20260902045556 | 80 | 238 | 0.0 | 1.0 | 0.00 | 0.00 | 0.00 | 83 | 1008.7 |
| 20260902045056 | 80 | 238 | 0.0 | 0.0 | 0.00 | 0.00 | 0.00 | 83 | 1008.8 |
| 20260902044558 | 80 | 238 | 0.0 | 1.0 | 0.00 | 0.00 | 0.00 | 84 | 1008.8 |
| 20260902044056 | 80 | 238 | 0.0 | 0.0 | 0.00 | 0.00 | 0.00 | 83 | 1008.8 |
| 20260902043554 | 80 | 238 | 0.0 | 1.0 | 0.00 | 0.00 | 0.00 | 83 | 1008.8 |
| 20260902043054 | 80 | 238 | 0.0 | 1.0 | 0.00 | 0.00 | 0.00 | 83 | 1008.8 |
| 20260902042555 | 80 | 238 | 0.0 | 1.0 | 0.00 | 0.00 | 0.00 | 83 | 1008.7 |
| 20260902042053 | 80 | 238 | 0.0 | 0.0 | 0.00 | 0.00 | 0.00 | 83 | 1008.8 |
| 20260902041606 | 80 | 238 | 0.0 | 0.0 | 0.00 | 0.00 | 0.00 | 83 | 1008.7 |
| 20260902041053 | 80 | 238 | 0.0 | 0.0 | 0.00 | 0.00 | 0.00 | 83 | 1008.6 |
| 20260902040555 | 80 | 238 | 0.0 | 0.0 | 0.00 | 0.00 | 0.00 | 83 | 1008.5 |
| 20260902040051 | 80 | 238 | 0.0 | 0.0 | 0.00 | 0.00 | 0.00 | 83 | 1008.6 |
| 20260902035551 | 80 | 238 | 0.0 | 0.0 | 0.00 | 0.00 | 0.00 | 82 | 1008.6 |
| 20260902035051 | 80 | 238 | 0.0 | 0.0 | 0.00 | 0.00 | 0.00 | 82 | 1008.5 |
| 20260902034551 | 81 | 238 | 0.0 | 0.0 | 0.00 | 0.00 | 0.00 | 82 | 1008.5 |
| 20260902034050 | 81 | 238 | 0.0 | 0.0 | 0.00 | 0.00 | 0.00 | 82 | 1008.3 |
| 20260902033550 | 81 | 238 | 0.0 | 0.0 | 0.00 | 0.00 | 0.00 | 81 | 1008.3 |
| 20260902033051 | 81 | 238 | 0.0 | 0.0 | 0.00 | 0.00 | 0.00 | 81 | 1008.3 |
| 20260902032551 | 81 | 238 | 0.0 | 2.0 | 0.00 | 0.00 | 0.00 | 81 | 1008.1 |
| 20260902032049 | 82 | 238 | 0.0 | 2.0 | 0.00 | 0.00 | 0.00 | 81 | 1008.2 |
| 20260902031551 | 81 | 255 | 0.0 | 0.0 | 0.00 | 0.00 | 0.00 | 81 | 1008.1 |
| 20260902031049 | 81 | 257 | 0.0 | 0.0 | 0.00 | 0.00 | 0.00 | 81 | 1008.1 |
| 20260902030549 | 81 | 257 | 0.0 | 0.0 | 0.00 | 0.00 | 0.00 | 81 | 1008.1 |
| 20260902030049 | 81 | 245 | 0.0 | 0.0 | 0.00 | 0.00 | 0.00 | 81 | 1008.2 |
| 20260902025549 | 81 | 240 | 0.0 | 0.0 | 0.00 | 0.00 | 0.00 | 81 | 1008.2 |
| 20260902025049 | 81 | 240 | 0.0 | 0.0 | 0.00 | 0.00 | 0.00 | 81 | 1008.2 |
| 20260902024558 | 82 | 240 | 0.0 | 0.0 | 0.00 | 0.00 | 0.00 | 80 | 1008.2 |
| 20260902024048 | 82 | 240 | 0.0 | 0.0 | 0.00 | 0.00 | 0.00 | 80 | 1008.3 |
| 20260902023548 | 82 | 240 | 0.0 | 0.0 | 0.00 | 0.00 | 0.00 | 80 | 1008.2 |
| 20260902023100 | 82 | 240 | 0.0 | 0.0 | 0.00 | 0.00 | 0.00 | 79 | 1008.2 |
| 20260902022548 | 83 | 240 | 0.0 | 0.0 | 0.00 | 0.00 | 0.00 | 79 | 1008.1 |
| 20260902022047 | 83 | 240 | 0.0 | 0.0 | 0.00 | 0.00 | 0.00 | 79 | 1008.0 |
| 20260902021555 | 83 | 240 | 0.0 | 0.0 | 0.00 | 0.00 | 0.00 | 79 | 1008.0 |
| 20260902021047 | 83 | 240 | 0.0 | 0.0 | 0.00 | 0.00 | 0.00 | 79 | 1007.9 |
| 20260902020547 | 83 | 240 | 0.0 | 1.0 | 0.00 | 0.00 | 0.00 | 79 | 1007.9 |
| 20260902020049 | 83 | 243 | 0.0 | 1.0 | 0.00 | 0.00 | 0.00 | 78 | 1007.9 |
| 20260902015547 | 83 | 247 | 0.0 | 1.0 | 0.00 | 0.00 | 0.00 | 78 | 1008.0 |
| 20260902015051 | 83 | 247 | 0.0 | 1.0 | 0.00 | 0.00 | 0.00 | 78 | 1007.8 |
| 20260902014548 | 83 | 229 | 0.0 | 0.0 | 0.00 | 0.00 | 0.00 | 78 | 1007.8 |
| 20260902014046 | 83 | 229 | 0.0 | 0.0 | 0.00 | 0.00 | 0.00 | 78 | 1007.7 |
| 20260902013550 | 83 | 229 | 0.0 | 0.0 | 0.00 | 0.00 | 0.00 | 77 | 1007.7 |
| 20260902013046 | 84 | 229 | 0.0 | 0.0 | 0.00 | 0.00 | 0.00 | 76 | 1007.6 |
| 20260902012546 | 84 | 229 | 0.0 | 0.0 | 0.00 | 0.00 | 0.00 | 76 | 1007.6 |
| 20260902012046 | 84 | 229 | 0.0 | 0.0 | 0.00 | 0.00 | 0.00 | 76 | 1007.4 |
| 20260902011547 | 85 | 229 | 0.0 | 2.0 | 0.00 | 0.00 | 0.00 | 75 | 1007.4 |
| 20260902011046 | 85 | 230 | 0.0 | 3.0 | 0.00 | 0.00 | 0.00 | 75 | 1007.3 |
| 20260902010546 | 85 | 239 | 1.0 | 3.0 | 0.00 | 0.00 | 0.00 | 75 | 1007.2 |
| 20260902010045 | 85 | 234 | 0.0 | 3.0 | 0.00 | 0.00 | 0.00 | 75 | 1007.0 |
| 20260902005545 | 85 | 230 | 0.0 | 3.0 | 0.00 | 0.00 | 0.00 | 76 | 1007.0 |
| 20260902005045 | 85 | 225 | 0.0 | 2.0 | 0.00 | 0.00 | 0.00 | 75 | 1007.0 |
| 20260902004549 | 85 | 239 | 0.0 | 2.0 | 0.00 | 0.00 | 0.00 | 75 | 1007.0 |
| 20260902004044 | 85 | 240 | 0.0 | 2.0 | 0.00 | 0.00 | 0.00 | 75 | 1006.7 |
| 20260902003544 | 85 | 243 | 0.0 | 0.0 | 0.00 | 0.00 | 0.00 | 74 | 1006.7 |
| 20260902003044 | 86 | 243 | 0.0 | 1.0 | 0.00 | 0.00 | 0.00 | 74 | 1006.7 |
| 20260902002547 | 86 | 243 | 0.0 | 1.0 | 0.00 | 0.00 | 0.00 | 73 | 1006.6 |
| 20260902002043 | 86 | 207 | 0.0 | 1.0 | 0.00 | 0.00 | 0.00 | 73 | 1006.5 |
| 20260902001549 | 86 | 207 | 0.0 | 1.0 | 0.00 | 0.00 | 0.00 | 72 | 1006.6 |
| 20260902001043 | 87 | 207 | 0.0 | 1.0 | 0.00 | 0.00 | 0.00 | 72 | 1006.5 |
| 20260902000543 | 87 | 208 | 0.0 | 1.0 | 0.00 | 0.00 | 0.00 | 71 | 1006.5 |
| 20260902000043 | 87 | 203 | 0.0 | 1.0 | 0.00 | 0.00 | 0.00 | 71 | 1006.5 |
| 20260901235543 | 88 | 222 | 0.0 | 1.0 | 0.00 | 0.00 | 0.00 | 70 | 1006.6 |
| 20260901235043 | 88 | 234 | 0.0 | 2.0 | 0.00 | 0.00 | 0.00 | 69 | 1006.6 |
| 20260901234543 | 88 | 214 | 0.0 | 2.0 | 0.00 | 0.00 | 0.00 | 69 | 1006.5 |
| 20260901234043 | 89 | 179 | 0.0 | 1.0 | 0.00 | 0.00 | 0.00 | 68 | 1006.6 |
| 20260901233542 | 89 | 212 | 0.0 | 1.0 | 0.00 | 0.00 | 0.00 | 67 | 1006.5 |
| 20260901233053 | 90 | 212 | 0.0 | 1.0 | 0.00 | 0.00 | 0.00 | 66 | 1006.5 |
| 20260901232544 | 90 | 212 | 0.0 | 1.0 | 0.00 | 0.00 | 0.00 | 65 | 1006.5 |
| 20260901232041 | 90 | 195 | 0.0 | 1.0 | 0.00 | 0.00 | 0.00 | 65 | 1006.6 |
| 20260901231542 | 90 | 233 | 0.0 | 1.0 | 0.00 | 0.00 | 0.00 | 64 | 1006.6 |
| 20260901231040 | 91 | 235 | 0.0 | 1.0 | 0.00 | 0.00 | 0.00 | 63 | 1006.6 |
| 20260901230540 | 91 | 210 | 0.0 | 3.0 | 0.00 | 0.00 | 0.00 | 62 | 1006.6 |
| 20260901230040 | 91 | 243 | 0.0 | 3.0 | 0.00 | 0.00 | 0.00 | 62 | 1006.8 |
| 20260901225538 | 91 | 231 | 1.0 | 3.0 | 0.00 | 0.00 | 0.00 | 61 | 1006.8 |
| 20260901225038 | 92 | 207 | 1.0 | 5.0 | 0.00 | 0.00 | 0.00 | 61 | 1006.9 |
| 20260901224538 | 92 | 238 | 1.0 | 5.0 | 0.00 | 0.00 | 0.00 | 60 | 1006.9 |
| 20260901224037 | 93 | 226 | 2.0 | 7.0 | 0.00 | 0.00 | 0.00 | 59 | 1007.0 |
| 20260901223537 | 93 | 229 | 2.0 | 7.0 | 0.00 | 0.00 | 0.00 | 58 | 1007.0 |
| 20260901223037 | 93 | 222 | 2.0 | 6.0 | 0.00 | 0.00 | 0.00 | 59 | 1007.0 |
| 20260901222536 | 93 | 213 | 1.0 | 5.0 | 0.00 | 0.00 | 0.00 | 58 | 1007.0 |
| 20260901222036 | 93 | 141 | 1.0 | 5.0 | 0.00 | 0.00 | 0.00 | 58 | 1007.1 |
| 20260901221536 | 93 | 233 | 1.0 | 9.0 | 0.00 | 0.00 | 0.00 | 60 | 1007.0 |
| 20260901221035 | 93 | 222 | 3.0 | 9.0 | 0.00 | 0.00 | 0.00 | 59 | 1007.1 |
| 20260901220536 | 93 | 230 | 3.0 | 9.0 | 0.00 | 0.00 | 0.00 | 60 | 1007.1 |
| 20260901220036 | 93 | 220 | 3.0 | 8.0 | 0.00 | 0.00 | 0.00 | 61 | 1007.0 |
| 20260901215536 | 93 | 300 | 0.0 | 6.0 | 0.00 | 0.00 | 0.00 | 61 | 1007.1 |
| 20260901215038 | 94 | 207 | 3.0 | 6.0 | 0.00 | 0.00 | 0.00 | 61 | 1007.1 |
| 20260901214539 | 94 | 201 | 0.0 | 6.0 | 0.00 | 0.00 | 0.00 | 61 | 1007.1 |
| 20260901214034 | 94 | 250 | 1.0 | 8.0 | 0.00 | 0.00 | 0.00 | 60 | 1007.1 |
| 20260901213534 | 94 | 245 | 3.0 | 6.0 | 0.00 | 0.00 | 0.00 | 60 | 1007.1 |
| 20260901213037 | 95 | 212 | 3.0 | 8.0 | 0.00 | 0.00 | 0.00 | 60 | 1007.2 |
| 20260901212533 | 94 | 321 | 2.0 | 8.0 | 0.00 | 0.00 | 0.00 | 60 | 1007.2 |
| 20260901212034 | 95 | 224 | 0.0 | 7.0 | 0.00 | 0.00 | 0.00 | 60 | 1007.1 |
| 20260901211533 | 94 | 162 | 3.0 | 9.0 | 0.00 | 0.00 | 0.00 | 60 | 1007.1 |
| 20260901211033 | 94 | 225 | 4.0 | 9.0 | 0.00 | 0.00 | 0.00 | 61 | 1007.2 |
| 20260901210533 | 94 | 252 | 3.0 | 9.0 | 0.00 | 0.00 | 0.00 | 60 | 1007.1 |
| 20260901210032 | 94 | 257 | 3.0 | 8.0 | 0.00 | 0.00 | 0.00 | 60 | 1007.2 |
| 20260901205532 | 94 | 256 | 1.0 | 6.0 | 0.00 | 0.00 | 0.00 | 59 | 1007.1 |
| 20260901205034 | 94 | 270 | 2.0 | 8.0 | 0.00 | 0.00 | 0.00 | 58 | 1007.2 |